This is the latest recevied weather packets stored in our database for station/object KM4CNW. If no packets are shown the sender has not sent any weather packets the latest 10 day(s).
| Time | Temp. | Humidity | Pressure | Rain* | Wind** | Luminosity | Snow |
|---|---|---|---|---|---|---|---|
| 1777502904 | 24.44° C | 64% | 1001.9 hPa | 0 mm | - | 93 W/m² | - |
| 1777502602 | 23.89° C | 66% | 1001.6 hPa | 0 mm | - | 31 W/m² | - |
| 1777502298 | 24.44° C | 69% | 1001.7 hPa | 0 mm | - | 19 W/m² | - |
| 1777501995 | 24.44° C | 67% | 1001.7 hPa | 0 mm | - | 26 W/m² | - |
| 1777501692 | 25° C | 65% | 1002 hPa | 0 mm | - | 48 W/m² | - |
| 1777501389 | 25° C | 63% | 1001.6 hPa | 0 mm | - | 66 W/m² | - |
| 1777501087 | 25° C | 61% | 1001.8 hPa | 0 mm | - | 62 W/m² | - |
| 1777500784 | 25.56° C | 60% | 1001.3 hPa | 0 mm | - | 87 W/m² | - |
| 1777500482 | 25.56° C | 60% | 1001.6 hPa | 0 mm | - | 193 W/m² | - |
| 1777500177 | 25.56° C | 61% | 1001.8 hPa | 0 mm | - | 293 W/m² | - |
| 1777499875 | 25.56° C | 61% | 1001.8 hPa | 0 mm | - | 155 W/m² | - |
| 1777499570 | 25.56° C | 63% | 1002 hPa | 0 mm | - | 128 W/m² | - |
| 1777499269 | 25° C | 66% | 1001.9 hPa | 0 mm | - | 308 W/m² | - |
| 1777498966 | 25° C | 65% | 1002.2 hPa | 0 mm | - | 103 W/m² | - |
| 1777498662 | 25° C | 63% | 1002 hPa | 0 mm | - | 88 W/m² | - |
| 1777498358 | 25° C | 60% | 1002.3 hPa | 0 mm | - | 93 W/m² | - |
| 1777498056 | 25° C | 61% | 1002.2 hPa | 0 mm | - | 100 W/m² | - |
| 1777497752 | 24.44° C | 61% | 1002.3 hPa | 0 mm | - | 80 W/m² | - |
| 1777497450 | 25° C | 61% | 1002.3 hPa | 0 mm | - | 31 W/m² | - |
| 1777497145 | 25° C | 60% | 1002.3 hPa | 0 mm | - | 17 W/m² | - |
| 1777496842 | 25° C | 58% | 1002.1 hPa | 0 mm | - | 35 W/m² | - |
| 1777496539 | 25.56° C | 58% | 1002.3 hPa | 0 mm | - | 61 W/m² | - |
| 1777496235 | 25.56° C | 56% | 1002.1 hPa | 0 mm | - | 102 W/m² | - |
| 1777495931 | 25.56° C | 56% | 1002.3 hPa | 0 mm | - | 110 W/m² | - |
| 1777495627 | 25.56° C | 56% | 1002.2 hPa | 0 mm | - | 135 W/m² | - |
* Rain latest hour (hover to see other rain measurements)
** Current wind speed in m/s (hover to see current wind gust speed)